^^
Datos históricos de la estación: Murcia-Puente Tocinos
Diario Informe para Junio 7, 2019 Unidades:  Métrico    Inglés   Ambas
Diario Semanal Mensual Anual Configurable
  Máximo: Mínimo: Media:
Temperatura: 29.7 °C 17.6 °C 23 °C
Punto de rocio: 16.1 °C 5.6 °C 11.9 °C
Humedad: 87% 28% 55%
Velocidad viento: 22.0km/h 0.0km/h 9.4km/h
Racha viento: 37.0km/h - -
Viento- - SSE
Presión: 1016.4 hPa 1009.4 hPa -
Precipitación: 0.0 mm    
Historical Graphs
 
 
Tabla de datos para Junio 7, 2019
Hora Temperatura Punto de rocio Presión Viento Velocidad viento Racha viento Humedad Intensidad lluvia(por hora) Nubes
00:04 19.3 °C 15.9 °C 1010.0 hPa ENE 10.3 km/h 20.4 km/h 81% 0.0 mm CLR
00:09 19.2 °C 15.8 °C 1010.0 hPa NE 11.9 km/h 16.7 km/h 81% 0.0 mm CLR
00:14 19.2 °C 16.1 °C 1010.0 hPa NE 11.9 km/h 14.8 km/h 82% 0.0 mm CLR
00:19 19.2 °C 16.1 °C 1010.1 hPa ENE 11.1 km/h 16.7 km/h 82% 0.0 mm CLR
00:24 19.1 °C 15.9 °C 1010.1 hPa ENE 11.1 km/h 18.5 km/h 82% 0.0 mm CLR
00:29 19.1 °C 15.9 °C 1010.1 hPa North 11.9 km/h 20.4 km/h 82% 0.0 mm CLR
00:34 19.1 °C 15.9 °C 1010.1 hPa NE 11.9 km/h 16.7 km/h 82% 0.0 mm CLR
00:39 19.0 °C 15.8 °C 1010.1 hPa ENE 10.0 km/h 13.0 km/h 82% 0.0 mm CLR
00:44 18.9 °C 15.8 °C 1010.1 hPa East 10.0 km/h 12.2 km/h 82% 0.0 mm CLR
00:49 18.9 °C 15.9 °C 1010.2 hPa NE 8.4 km/h 12.2 km/h 83% 0.0 mm CLR
00:54 18.8 °C 15.8 °C 1010.2 hPa NE 8.4 km/h 16.4 km/h 83% 0.0 mm CLR
00:59 18.8 °C 15.8 °C 1010.2 hPa East 10.0 km/h 13.0 km/h 83% 0.0 mm CLR
01:04 18.8 °C 15.8 °C 1010.1 hPa East 10.0 km/h 9.3 km/h 83% 0.0 mm CLR
01:09 18.7 °C 15.8 °C 1010.1 hPa ENE 6.9 km/h 9.3 km/h 83% 0.0 mm CLR
01:14 18.8 °C 15.8 °C 1010.1 hPa ENE 6.9 km/h 7.4 km/h 83% 0.0 mm CLR
01:19 18.8 °C 15.8 °C 1009.9 hPa ENE 6.4 km/h 10.3 km/h 83% 0.0 mm CLR
01:24 18.8 °C 15.7 °C 1009.9 hPa NE 6.4 km/h 9.3 km/h 82% 0.0 mm CLR
01:29 18.8 °C 15.7 °C 1009.9 hPa East 6.4 km/h 11.1 km/h 82% 0.0 mm CLR
01:34 18.9 °C 15.8 °C 1009.8 hPa ENE 6.4 km/h 9.3 km/h 82% 0.0 mm CLR
01:39 18.9 °C 15.8 °C 1009.8 hPa ENE 5.8 km/h 9.5 km/h 82% 0.0 mm CLR
01:44 18.8 °C 15.7 °C 1009.8 hPa NE 5.8 km/h 9.3 km/h 82% 0.0 mm CLR
01:49 18.7 °C 15.6 °C 1009.7 hPa NE 5.8 km/h 9.3 km/h 82% 0.0 mm CLR
01:54 18.7 °C 15.8 °C 1009.7 hPa NE 5.8 km/h 7.4 km/h 83% 0.0 mm CLR
01:59 18.6 °C 15.7 °C 1009.7 hPa NE 5.0 km/h 7.4 km/h 83% 0.0 mm CLR
02:04 18.4 °C 15.4 °C 1009.6 hPa NE 5.0 km/h 7.4 km/h 83% 0.0 mm CLR
02:09 18.3 °C 15.6 °C 1009.6 hPa NE 5.8 km/h 7.4 km/h 84% 0.0 mm CLR
02:14 18.3 °C 15.6 °C 1009.6 hPa ENE 5.8 km/h 9.3 km/h 84% 0.0 mm CLR
02:19 18.1 °C 15.6 °C 1009.6 hPa NE 5.0 km/h 9.3 km/h 85% 0.0 mm CLR
02:24 18.0 °C 15.4 °C 1009.6 hPa NNE 5.0 km/h 11.1 km/h 85% 0.0 mm CLR
02:29 17.9 °C 15.3 °C 1009.6 hPa NNE 6.9 km/h 9.5 km/h 85% 0.0 mm CLR
02:34 17.9 °C 15.5 °C 1009.4 hPa NE 6.9 km/h 9.3 km/h 86% 0.0 mm CLR
02:39 17.9 °C 15.5 °C 1009.4 hPa NE 6.9 km/h 9.3 km/h 86% 0.0 mm CLR
02:44 17.9 °C 15.5 °C 1009.4 hPa NNE 6.9 km/h 9.3 km/h 86% 0.0 mm CLR
02:49 17.9 °C 15.5 °C 1009.6 hPa NNE 4.7 km/h 7.4 km/h 86% 0.0 mm CLR
02:54 17.9 °C 15.7 °C 1009.6 hPa NE 4.7 km/h 7.6 km/h 87% 0.0 mm CLR
02:59 17.9 °C 15.7 °C 1009.6 hPa NE 6.4 km/h 9.3 km/h 87% 0.0 mm CLR
03:04 17.9 °C 15.7 °C 1009.5 hPa NE 6.4 km/h 9.3 km/h 87% 0.0 mm CLR
03:09 17.9 °C 15.7 °C 1009.5 hPa NE 5.8 km/h 5.8 km/h 87% 0.0 mm CLR
03:14 17.8 °C 15.6 °C 1009.5 hPa NE 5.8 km/h 5.6 km/h 87% 0.0 mm CLR
03:19 17.8 °C 15.6 °C 1009.6 hPa NNE 3.2 km/h 2.3 km/h 87% 0.0 mm CLR
03:24 17.8 °C 15.6 °C 1009.6 hPa NNE 3.2 km/h 7.4 km/h 87% 0.0 mm CLR
03:29 17.8 °C 15.6 °C 1009.6 hPa NNW 3.2 km/h   87% 0.0 mm CLR
03:34 17.8 °C 15.6 °C 1009.4 hPa NNW 3.2 km/h 3.7 km/h 87% 0.0 mm CLR
03:39 17.8 °C 15.6 °C 1009.4 hPa NNW 2.3 km/h   87% 0.0 mm CLR
03:44 17.8 °C 15.6 °C 1009.4 hPa NNW 2.3 km/h 3.7 km/h 87% 0.0 mm CLR
03:49 17.8 °C 15.6 °C 1009.4 hPa NW 2.3 km/h 5.8 km/h 87% 0.0 mm CLR
03:54 17.8 °C 15.6 °C 1009.4 hPa NW 2.3 km/h 7.4 km/h 87% 0.0 mm CLR
03:59 17.8 °C 15.6 °C 1009.4 hPa NW 2.9 km/h 7.4 km/h 87% 0.0 mm CLR
04:04 17.8 °C 15.6 °C 1009.5 hPa WNW 2.9 km/h 5.6 km/h 87% 0.0 mm CLR
04:09 17.8 °C 15.6 °C 1009.5 hPa WNW 3.9 km/h 3.7 km/h 87% 0.0 mm CLR
04:14 17.8 °C 15.6 °C 1009.5 hPa WNW 3.9 km/h 7.4 km/h 87% 0.0 mm CLR
04:19 17.9 °C 15.7 °C 1009.6 hPa West 3.2 km/h 7.4 km/h 87% 0.0 mm CLR
04:24 17.9 °C 15.7 °C 1009.6 hPa West 3.2 km/h 7.4 km/h 87% 0.0 mm CLR
04:29 17.9 °C 15.7 °C 1009.6 hPa West 3.2 km/h 3.7 km/h 87% 0.0 mm CLR
04:34 18.0 °C 15.8 °C 1009.5 hPa West 3.2 km/h 3.7 km/h 87% 0.0 mm CLR
04:39 18.1 °C 15.7 °C 1009.5 hPa Calm     86% 0.0 mm CLR
04:44 18.1 °C 15.6 °C 1009.5 hPa Calm   8.7 km/h 85% 0.0 mm CLR
04:49 17.9 °C 14.9 °C 1009.5 hPa South 3.9 km/h 10.3 km/h 83% 0.0 mm CLR
04:54 17.9 °C 14.8 °C 1009.5 hPa South 3.9 km/h 9.3 km/h 82% 0.0 mm CLR
04:59 17.8 °C 14.7 °C 1009.5 hPa SSW 7.6 km/h 9.3 km/h 82% 0.0 mm CLR
05:04 17.8 °C 14.5 °C 1009.4 hPa South 7.6 km/h 9.3 km/h 81% 0.0 mm CLR
05:09 17.7 °C 14.4 °C 1009.4 hPa South 7.6 km/h 11.1 km/h 81% 0.0 mm CLR
05:14 17.7 °C 14.6 °C 1009.4 hPa South 7.6 km/h 7.4 km/h 82% 0.0 mm CLR
05:19 17.7 °C 14.6 °C 1009.5 hPa South 6.4 km/h 7.4 km/h 82% 0.0 mm CLR
05:24 17.7 °C 14.8 °C 1009.5 hPa SSW 6.4 km/h 9.3 km/h 83% 0.0 mm CLR
05:29 17.7 °C 14.9 °C 1009.5 hPa SSW 6.4 km/h 9.3 km/h 84% 0.0 mm CLR
05:34 17.8 °C 15.1 °C 1009.6 hPa WSW 6.4 km/h 8.4 km/h 84% 0.0 mm CLR
05:39 17.8 °C 15.1 °C 1009.6 hPa WSW 5.8 km/h 7.6 km/h 84% 0.0 mm CLR
05:44 17.9 °C 15.2 °C 1009.6 hPa SW 5.8 km/h 9.3 km/h 84% 0.0 mm CLR
05:49 17.9 °C 15.3 °C 1009.8 hPa WSW 6.9 km/h 9.3 km/h 85% 0.0 mm CLR
05:54 17.9 °C 15.2 °C 1009.8 hPa SW 6.9 km/h 9.3 km/h 84% 0.0 mm CLR
05:59 17.9 °C 15.3 °C 1009.8 hPa SW 6.4 km/h 11.1 km/h 85% 0.0 mm CLR
06:04 17.9 °C 15.3 °C 1009.9 hPa SW 6.4 km/h 9.3 km/h 85% 0.0 mm CLR
06:09 17.8 °C 15.2 °C 1009.9 hPa WSW 6.4 km/h 11.1 km/h 85% 0.0 mm CLR
06:14 17.8 °C 15.2 °C 1009.9 hPa WSW 6.4 km/h 13.0 km/h 85% 0.0 mm CLR
06:19 17.8 °C 15.2 °C 1009.8 hPa WSW 7.6 km/h 11.1 km/h 85% 0.0 mm CLR
06:24 17.8 °C 15.2 °C 1009.8 hPa WSW 7.6 km/h 10.0 km/h 85% 0.0 mm CLR
06:29 17.8 °C 15.2 °C 1009.8 hPa SW 6.4 km/h 7.4 km/h 85% 0.0 mm CLR
06:34 17.8 °C 15.2 °C 1010.0 hPa WSW 6.4 km/h 8.7 km/h 85% 0.0 mm CLR
06:39 17.8 °C 15.2 °C 1010.0 hPa SSW 6.4 km/h 11.1 km/h 85% 0.0 mm CLR
06:44 17.7 °C 15.2 °C 1010.0 hPa SSW 6.4 km/h 9.3 km/h 85% 0.0 mm CLR
06:49 17.6 °C 15.1 °C 1010.3 hPa SSW 6.9 km/h 9.3 km/h 85% 0.0 mm CLR
06:54 17.6 °C 15.1 °C 1010.3 hPa SSW 6.9 km/h 9.3 km/h 85% 0.0 mm CLR
06:59 17.6 °C 15.2 °C 1010.3 hPa WSW 5.8 km/h 9.3 km/h 86% 0.0 mm CLR
07:04 17.6 °C 15.2 °C 1010.4 hPa SW 5.8 km/h 5.6 km/h 86% 0.0 mm CLR
07:09 17.7 °C 15.3 °C 1010.4 hPa SW 5.0 km/h 10.0 km/h 86% 0.0 mm CLR
07:14 17.7 °C 15.2 °C 1010.4 hPa WSW 5.0 km/h 7.4 km/h 85% 0.0 mm CLR
07:19 17.7 °C 15.2 °C 1010.6 hPa West 6.9 km/h 11.1 km/h 85% 0.0 mm CLR
07:24 17.7 °C 15.2 °C 1010.6 hPa WSW 6.9 km/h 9.3 km/h 85% 0.0 mm CLR
07:29 17.7 °C 15.2 °C 1010.6 hPa WSW 6.4 km/h 11.1 km/h 85% 0.0 mm CLR
07:34 17.8 °C 15.2 °C 1010.6 hPa WSW 6.4 km/h 9.3 km/h 85% 0.0 mm CLR
07:39 17.9 °C 15.3 °C 1010.6 hPa South 6.9 km/h 11.1 km/h 85% 0.0 mm CLR
07:44 18.0 °C 15.4 °C 1010.6 hPa SSW 6.9 km/h 13.0 km/h 85% 0.0 mm CLR
07:49 18.1 °C 15.3 °C 1010.8 hPa SW 6.9 km/h 9.3 km/h 84% 0.0 mm CLR
07:54 18.1 °C 15.3 °C 1010.8 hPa SW 6.9 km/h 10.0 km/h 84% 0.0 mm CLR
07:59 18.1 °C 15.3 °C 1010.8 hPa SSW 6.9 km/h 11.1 km/h 84% 0.0 mm CLR
08:04 18.1 °C 15.2 °C 1011.0 hPa SSW 6.9 km/h 13.0 km/h 83% 0.0 mm CLR
08:09 18.2 °C 15.3 °C 1011.0 hPa SSW 8.4 km/h 13.0 km/h 83% 0.0 mm CLR
08:14 18.2 °C 15.1 °C 1011.0 hPa SSW 8.4 km/h 8.4 km/h 82% 0.0 mm CLR
08:19 18.3 °C 15.2 °C 1011.3 hPa SW 6.9 km/h 11.1 km/h 82% 0.0 mm CLR
08:24 18.3 °C 15.0 °C 1011.3 hPa SSW 6.9 km/h 11.1 km/h 81% 0.0 mm CLR
08:29 18.4 °C 14.9 °C 1011.3 hPa South 8.4 km/h 9.3 km/h 80% 0.0 mm CLR
08:34 18.6 °C 14.7 °C 1011.4 hPa SW 8.4 km/h 14.8 km/h 78% 0.0 mm CLR
08:39 18.6 °C 14.7 °C 1011.4 hPa SW 9.5 km/h 9.3 km/h 78% 0.0 mm CLR
08:44 18.9 °C 14.8 °C 1011.4 hPa SW 9.5 km/h 13.0 km/h 77% 0.0 mm CLR
08:49 19.1 °C 14.8 °C 1011.6 hPa SW 6.9 km/h 14.8 km/h 76% 0.0 mm CLR
08:54 19.3 °C 14.9 °C 1011.6 hPa WSW 6.9 km/h 11.1 km/h 76% 0.0 mm CLR
08:59 19.4 °C 14.7 °C 1011.6 hPa SW 8.4 km/h 13.0 km/h 74% 0.0 mm CLR
09:04 19.6 °C 14.6 °C 1011.5 hPa SW 8.4 km/h 7.4 km/h 73% 0.0 mm CLR
09:09 19.7 °C 14.5 °C 1011.5 hPa WSW 6.9 km/h 13.0 km/h 72% 0.0 mm CLR
09:14 19.9 °C 14.3 °C 1011.5 hPa SW 6.9 km/h 9.5 km/h 70% 0.0 mm CLR
09:19 20.1 °C 14.4 °C 1011.7 hPa SSW 6.4 km/h 13.0 km/h 70% 0.0 mm CLR
09:24 20.1 °C 14.2 °C 1011.7 hPa SW 6.4 km/h 13.0 km/h 69% 0.0 mm CLR
09:29 20.2 °C 14.1 °C 1011.7 hPa SW 8.4 km/h 11.1 km/h 68% 0.0 mm CLR
09:34 20.4 °C 13.8 °C 1011.9 hPa SSW 8.4 km/h 10.0 km/h 66% 0.0 mm CLR
09:39 20.6 °C 13.8 °C 1011.9 hPa WSW 7.6 km/h 11.1 km/h 65% 0.0 mm CLR
09:44 20.9 °C 13.6 °C 1011.9 hPa West 7.6 km/h 11.1 km/h 63% 0.0 mm CLR
09:49 21.1 °C 13.6 °C 1012.0 hPa WSW 6.9 km/h 13.0 km/h 62% 0.0 mm CLR
09:54 21.1 °C 13.6 °C 1012.0 hPa SW 6.9 km/h 13.0 km/h 62% 0.0 mm CLR
09:59 21.2 °C 13.4 °C 1012.0 hPa WSW 8.4 km/h 10.0 km/h 61% 0.0 mm CLR
10:04 21.3 °C 13.2 °C 1012.2 hPa SW 8.4 km/h 14.8 km/h 60% 0.0 mm CLR
10:09 21.3 °C 12.9 °C 1012.2 hPa SW 9.5 km/h 16.7 km/h 59% 0.0 mm CLR
10:14 21.6 °C 12.7 °C 1012.2 hPa South 9.5 km/h 11.1 km/h 57% 0.0 mm CLR
10:19 21.8 °C 12.3 °C 1012.1 hPa SW 8.4 km/h 13.0 km/h 55% 0.0 mm CLR
10:24 22.0 °C 12.6 °C 1012.1 hPa WSW 8.4 km/h 9.3 km/h 55% 0.0 mm CLR
10:29 22.2 °C 11.6 °C 1012.1 hPa SW 8.4 km/h 13.0 km/h 51% 0.0 mm CLR
10:34 22.3 °C 11.9 °C 1012.2 hPa WNW 8.4 km/h 11.1 km/h 52% 0.0 mm CLR
10:39 22.4 °C 12.1 °C 1012.2 hPa SW 8.7 km/h 14.8 km/h 52% 0.0 mm CLR
10:44 22.5 °C 12.2 °C 1012.2 hPa NW 8.7 km/h 7.4 km/h 52% 0.0 mm CLR
10:49 22.7 °C 12.1 °C 1012.2 hPa WSW 7.6 km/h 14.8 km/h 51% 0.0 mm CLR
10:54 22.8 °C 11.2 °C 1012.2 hPa WNW 7.6 km/h 8.4 km/h 48% 0.0 mm CLR
10:59 23.1 °C 11.2 °C 1012.2 hPa SSW 8.7 km/h 11.1 km/h 47% 0.0 mm CLR
11:04 23.4 °C 11.1 °C 1012.2 hPa WSW 8.7 km/h 10.3 km/h 46% 0.0 mm CLR
11:09 23.7 °C 11.1 °C 1012.2 hPa SW 6.4 km/h 9.5 km/h 45% 0.0 mm CLR
11:14 24.0 °C 9.9 °C 1012.2 hPa WSW 6.4 km/h 20.4 km/h 41% 0.0 mm CLR
11:19 24.1 °C 10.0 °C 1012.3 hPa SW 9.5 km/h 13.0 km/h 41% 0.0 mm CLR
11:24 24.2 °C 10.1 °C 1012.3 hPa WNW 9.5 km/h 14.8 km/h 41% 0.0 mm CLR
11:29 24.3 °C 9.8 °C 1012.3 hPa West 8.4 km/h 9.3 km/h 40% 0.0 mm CLR
11:34 24.6 °C 10.1 °C 1012.4 hPa NNW 8.4 km/h 11.1 km/h 40% 0.0 mm CLR
11:39 24.8 °C 10.3 °C 1012.4 hPa ENE 5.0 km/h 3.7 km/h 40% 0.0 mm CLR
11:44 25.0 °C 9.7 °C 1012.4 hPa WSW 5.0 km/h 9.3 km/h 38% 0.0 mm CLR
11:49 25.3 °C 9.9 °C 1012.4 hPa North 3.9 km/h 8.4 km/h 38% 0.0 mm CLR
11:54 25.7 °C 9.9 °C 1012.4 hPa ENE 3.9 km/h 7.4 km/h 37% 0.0 mm CLR
11:59 25.8 °C 9.6 °C 1012.4 hPa WNW 5.0 km/h 9.3 km/h 36% 0.0 mm CLR
12:04 25.9 °C 9.3 °C 1012.3 hPa SSW 5.0 km/h 13.0 km/h 35% 0.0 mm CLR
12:09 25.8 °C 9.2 °C 1012.3 hPa SSE 6.9 km/h 9.3 km/h 35% 0.0 mm CLR
12:14 26.0 °C 9.8 °C 1012.3 hPa WSW 6.9 km/h 11.1 km/h 36% 0.0 mm CLR
12:19 25.9 °C 9.3 °C 1012.5 hPa NE 6.4 km/h 9.3 km/h 35% 0.0 mm CLR
12:24 26.0 °C 9.3 °C 1012.5 hPa West 6.4 km/h 11.1 km/h 35% 0.0 mm CLR
12:29 26.1 °C 9.4 °C 1012.5 hPa ESE 5.0 km/h 5.0 km/h 35% 0.0 mm CLR
12:34 26.4 °C 9.7 °C 1012.5 hPa SSE 5.0 km/h 8.7 km/h 35% 0.0 mm CLR
12:39 26.7 °C 9.9 °C 1012.5 hPa ENE 4.7 km/h 8.7 km/h 35% 0.0 mm CLR
12:44 26.9 °C 9.3 °C 1012.5 hPa SW 4.7 km/h 9.3 km/h 33% 0.0 mm CLR
12:49 26.9 °C 9.3 °C 1012.5 hPa West 6.4 km/h 13.0 km/h 33% 0.0 mm CLR
12:54 26.9 °C 9.3 °C 1012.5 hPa SW 6.4 km/h 11.1 km/h 33% 0.0 mm CLR
12:59 26.9 °C 9.3 °C 1012.5 hPa SW 6.4 km/h 9.3 km/h 33% 0.0 mm CLR
13:04 27.0 °C 8.9 °C 1012.4 hPa NNW 6.4 km/h 11.1 km/h 32% 0.0 mm CLR
13:09 27.2 °C 9.1 °C 1012.4 hPa North 5.0 km/h 11.1 km/h 32% 0.0 mm CLR
13:14 27.2 °C 9.1 °C 1012.4 hPa NE 5.0 km/h 9.3 km/h 32% 0.0 mm CLR
13:19 27.3 °C 8.7 °C 1012.4 hPa SW 5.0 km/h 9.3 km/h 31% 0.0 mm CLR
13:24 27.4 °C 8.8 °C 1012.4 hPa West 5.0 km/h 13.0 km/h 31% 0.0 mm CLR
13:29 27.6 °C 8.9 °C 1012.4 hPa NW 6.9 km/h 10.3 km/h 31% 0.0 mm CLR
13:34 27.6 °C 8.9 °C 1012.3 hPa SSE 6.9 km/h 7.4 km/h 31% 0.0 mm CLR
13:39 27.7 °C 8.6 °C 1012.3 hPa SW 5.8 km/h 7.4 km/h 30% 0.0 mm CLR
13:44 27.7 °C 9.1 °C 1012.3 hPa East 5.8 km/h 9.3 km/h 31% 0.0 mm CLR
13:49 27.8 °C 8.6 °C 1012.2 hPa ESE 5.8 km/h 7.4 km/h 30% 0.0 mm CLR
13:54 28.1 °C 9.4 °C 1012.2 hPa East 5.8 km/h 11.1 km/h 31% 0.0 mm CLR
13:59 28.1 °C 8.9 °C 1012.2 hPa ENE 8.7 km/h 14.8 km/h 30% 0.0 mm CLR
14:04 28.0 °C 9.3 °C 1012.1 hPa NE 8.7 km/h 13.7 km/h 31% 0.0 mm CLR
14:09 28.1 °C 8.9 °C 1012.1 hPa East 8.7 km/h 11.1 km/h 30% 0.0 mm CLR
14:14 28.2 °C 9.0 °C 1012.1 hPa ESE 8.7 km/h 9.5 km/h 30% 0.0 mm CLR
14:19 28.6 °C 9.3 °C 1012.1 hPa ENE 6.9 km/h 7.4 km/h 30% 0.0 mm CLR
14:24 28.7 °C 8.9 °C 1012.1 hPa North 6.9 km/h 11.1 km/h 29% 0.0 mm CLR
14:29 28.5 °C 8.7 °C 1012.1 hPa NE 6.9 km/h 10.0 km/h 29% 0.0 mm CLR
14:34 28.5 °C 8.7 °C 1011.9 hPa East 6.9 km/h 9.3 km/h 29% 0.0 mm CLR
14:39 28.6 °C 8.8 °C 1011.9 hPa ENE 5.8 km/h 7.4 km/h 29% 0.0 mm CLR
14:44 29.1 °C 8.7 °C 1011.9 hPa WNW 5.8 km/h 10.0 km/h 28% 0.0 mm CLR
14:49 29.2 °C 8.8 °C 1011.7 hPa NNW 5.0 km/h 9.3 km/h 28% 0.0 mm CLR
14:54 29.2 °C 8.8 °C 1011.7 hPa North 5.0 km/h 13.0 km/h 28% 0.0 mm CLR
14:59 29.0 °C 9.7 °C 1011.7 hPa ENE 8.4 km/h 20.4 km/h 30% 0.0 mm CLR
15:04 29.0 °C 9.2 °C 1011.7 hPa NE 8.4 km/h 16.7 km/h 29% 0.0 mm CLR
15:09 29.1 °C 9.2 °C 1011.7 hPa ENE 11.9 km/h 9.3 km/h 29% 0.0 mm CLR
15:14 29.3 °C 9.4 °C 1011.7 hPa NE 11.9 km/h 18.0 km/h 29% 0.0 mm CLR
15:19 29.4 °C 9.5 °C 1011.6 hPa East 6.4 km/h 14.8 km/h 29% 0.0 mm CLR
15:24 29.7 °C 9.8 °C 1011.6 hPa SE 6.4 km/h 13.0 km/h 29% 0.0 mm CLR
15:29 29.7 °C 9.2 °C 1011.6 hPa South 9.5 km/h 9.3 km/h 28% 0.0 mm CLR
15:34 29.6 °C 12.5 °C 1011.5 hPa ESE 9.5 km/h 31.5 km/h 35% 0.0 mm CLR
15:39 29.6 °C 12.5 °C 1011.5 hPa East 14.0 km/h 31.5 km/h 35% 0.0 mm CLR
15:44 29.2 °C 12.6 °C 1011.5 hPa SE 14.0 km/h 27.8 km/h 36% 0.0 mm CLR
15:49 29.0 °C 12.4 °C 1011.8 hPa SE 20.1 km/h 22.2 km/h 36% 0.0 mm CLR
15:54 29.1 °C 12.5 °C 1011.8 hPa SSE 20.1 km/h 29.6 km/h 36% 0.0 mm CLR
15:59 29.1 °C 12.9 °C 1011.8 hPa ESE 16.4 km/h 24.1 km/h 37% 0.0 mm CLR
16:04 29.1 °C 12.5 °C 1011.5 hPa ESE 16.4 km/h 31.5 km/h 36% 0.0 mm CLR
16:09 28.9 °C 12.3 °C 1011.5 hPa ESE 19.0 km/h 33.3 km/h 36% 0.0 mm CLR
16:14 28.8 °C 11.8 °C 1011.5 hPa East 19.0 km/h 33.3 km/h 35% 0.0 mm CLR
16:19 28.7 °C 11.7 °C 1011.7 hPa SE 21.7 km/h 25.6 km/h 35% 0.0 mm CLR
16:24 28.8 °C 11.8 °C 1011.7 hPa SSE 21.7 km/h 29.6 km/h 35% 0.0 mm CLR
16:29 28.9 °C 11.4 °C 1011.7 hPa SE 18.3 km/h 25.9 km/h 34% 0.0 mm CLR
16:34 28.9 °C 11.0 °C 1011.7 hPa SSE 18.3 km/h 31.5 km/h 33% 0.0 mm CLR
16:39 28.7 °C 10.8 °C 1011.7 hPa NE 21.7 km/h 27.8 km/h 33% 0.0 mm CLR
16:44 28.8 °C 10.9 °C 1011.7 hPa SSE 21.7 km/h 37.0 km/h 33% 0.0 mm CLR
16:49 28.8 °C 10.9 °C 1011.6 hPa ESE 19.8 km/h 35.2 km/h 33% 0.0 mm CLR
16:54 28.7 °C 11.3 °C 1011.6 hPa SE 19.8 km/h 29.6 km/h 34% 0.0 mm CLR
16:59 28.7 °C 10.8 °C 1011.6 hPa East 22.0 km/h 25.9 km/h 33% 0.0 mm CLR
17:04 28.7 °C 10.8 °C 1011.7 hPa SE 22.0 km/h 27.8 km/h 33% 0.0 mm CLR
17:09 28.7 °C 10.8 °C 1011.7 hPa ESE 20.1 km/h 27.8 km/h 33% 0.0 mm CLR
17:14 28.5 °C 10.7 °C 1011.7 hPa ESE 20.1 km/h 31.5 km/h 33% 0.0 mm CLR
17:19 28.6 °C 10.3 °C 1011.7 hPa ESE 19.0 km/h 31.5 km/h 32% 0.0 mm CLR
17:24 28.2 °C 10.4 °C 1011.7 hPa ESE 19.0 km/h 33.3 km/h 33% 0.0 mm CLR
17:29 28.5 °C 10.2 °C 1011.7 hPa ESE 22.0 km/h 25.9 km/h 32% 0.0 mm CLR
17:34 28.6 °C 10.3 °C 1011.8 hPa SE 22.0 km/h 31.5 km/h 32% 0.0 mm CLR
17:39 28.6 °C 10.3 °C 1011.8 hPa SE 17.2 km/h 31.5 km/h 32% 0.0 mm CLR
17:44 28.3 °C 9.6 °C 1011.8 hPa SE 17.2 km/h 29.6 km/h 31% 0.0 mm CLR
17:49 28.3 °C 10.0 °C 1011.8 hPa ESE 20.1 km/h 33.3 km/h 32% 0.0 mm CLR
17:54 28.2 °C 9.4 °C 1011.8 hPa ESE 20.1 km/h 29.6 km/h 31% 0.0 mm CLR
17:59 28.0 °C 9.3 °C 1011.8 hPa East 20.9 km/h 29.6 km/h 31% 0.0 mm CLR
18:04 28.0 °C 8.8 °C 1012.0 hPa East 20.9 km/h 29.6 km/h 30% 0.0 mm CLR
18:09 28.2 °C 9.4 °C 1012.0 hPa SE 19.8 km/h 22.2 km/h 31% 0.0 mm CLR
18:14 28.2 °C 9.0 °C 1012.0 hPa SE 19.8 km/h 27.8 km/h 30% 0.0 mm CLR
18:19 28.1 °C 8.9 °C 1012.1 hPa SE 17.2 km/h 22.2 km/h 30% 0.0 mm CLR
18:24 28.1 °C 8.9 °C 1012.1 hPa ESE 17.2 km/h 27.8 km/h 30% 0.0 mm CLR
18:29 28.1 °C 8.9 °C 1012.1 hPa East 17.2 km/h 27.8 km/h 30% 0.0 mm CLR
18:34 28.1 °C 8.9 °C 1012.2 hPa SE 17.2 km/h 27.8 km/h 30% 0.0 mm CLR
18:39 28.1 °C 8.4 °C 1012.2 hPa SE 18.0 km/h 25.9 km/h 29% 0.0 mm CLR
18:44 28.0 °C 8.3 °C 1012.2 hPa SE 18.0 km/h 24.1 km/h 29% 0.0 mm CLR
18:49 27.8 °C 8.1 °C 1012.3 hPa ESE 18.3 km/h 33.3 km/h 29% 0.0 mm CLR
18:54 27.8 °C 7.6 °C 1012.3 hPa ESE 18.3 km/h 20.4 km/h 28% 0.0 mm CLR
18:59 27.8 °C 8.1 °C 1012.3 hPa SE 16.4 km/h 22.2 km/h 29% 0.0 mm CLR
19:04 27.7 °C 7.6 °C 1012.3 hPa SE 16.4 km/h 25.9 km/h 28% 0.0 mm CLR
19:09 27.7 °C 8.1 °C 1012.3 hPa SE 17.2 km/h 24.1 km/h 29% 0.0 mm CLR
19:14 27.6 °C 7.9 °C 1012.3 hPa ESE 17.2 km/h 29.6 km/h 29% 0.0 mm CLR
19:19 27.5 °C 7.9 °C 1012.5 hPa SE 16.1 km/h 16.7 km/h 29% 0.0 mm CLR
19:24 27.6 °C 7.9 °C 1012.5 hPa SE 16.1 km/h 25.9 km/h 29% 0.0 mm CLR
19:29 27.5 °C 7.3 °C 1012.5 hPa SE 14.8 km/h 20.4 km/h 28% 0.0 mm CLR
19:34 27.4 °C 7.3 °C 1012.6 hPa SSE 14.8 km/h 22.2 km/h 28% 0.0 mm CLR
19:39 27.3 °C 7.2 °C 1012.6 hPa ESE 16.1 km/h 20.4 km/h 28% 0.0 mm CLR
19:44 27.3 °C 7.2 °C 1012.6 hPa SSE 16.1 km/h 21.7 km/h 28% 0.0 mm CLR
19:49 27.3 °C 7.2 °C 1012.8 hPa ESE 14.0 km/h 16.7 km/h 28% 0.0 mm CLR
19:54 27.2 °C 7.1 °C 1012.8 hPa ESE 14.0 km/h 22.2 km/h 28% 0.0 mm CLR
19:59 27.2 °C 7.1 °C 1012.8 hPa ESE 13.7 km/h 19.0 km/h 28% 0.0 mm CLR
20:04 27.1 °C 7.0 °C 1012.9 hPa ESE 13.7 km/h 20.9 km/h 28% 0.0 mm CLR
20:09 27.0 °C 6.9 °C 1012.9 hPa SE 13.7 km/h 18.5 km/h 28% 0.0 mm CLR
20:14 26.9 °C 6.8 °C 1012.9 hPa ESE 13.7 km/h 20.4 km/h 28% 0.0 mm CLR
20:19 26.8 °C 6.8 °C 1013.2 hPa SE 13.0 km/h 20.4 km/h 28% 0.0 mm CLR
20:24 26.7 °C 6.7 °C 1013.2 hPa ESE 13.0 km/h 16.7 km/h 28% 0.0 mm CLR
20:29 26.7 °C 6.7 °C 1013.2 hPa SE 12.2 km/h 18.5 km/h 28% 0.0 mm CLR
20:34 26.6 °C 6.6 °C 1013.3 hPa SE 12.2 km/h 20.4 km/h 28% 0.0 mm CLR
20:39 26.5 °C 6.5 °C 1013.3 hPa SE 12.2 km/h 13.0 km/h 28% 0.0 mm CLR
20:44 26.5 °C 6.5 °C 1013.3 hPa SE 12.2 km/h 13.0 km/h 28% 0.0 mm CLR
20:49 26.3 °C 6.8 °C 1013.4 hPa SE 9.5 km/h 14.8 km/h 29% 0.0 mm CLR
20:54 26.3 °C 6.8 °C 1013.4 hPa ESE 9.5 km/h 13.7 km/h 29% 0.0 mm CLR
20:59 26.1 °C 7.2 °C 1013.4 hPa ESE 9.5 km/h 13.0 km/h 30% 0.0 mm CLR
21:04 25.9 °C 7.0 °C 1013.8 hPa ESE 9.5 km/h 18.0 km/h 30% 0.0 mm CLR
21:09 25.7 °C 6.8 °C 1013.8 hPa ESE 10.3 km/h 13.0 km/h 30% 0.0 mm CLR
21:14 25.6 °C 6.7 °C 1013.8 hPa SE 10.3 km/h 9.3 km/h 30% 0.0 mm CLR
21:19 25.5 °C 6.7 °C 1014.0 hPa ESE 8.7 km/h 13.0 km/h 30% 0.0 mm CLR
21:24 25.3 °C 6.4 °C 1014.0 hPa ENE 8.7 km/h 11.1 km/h 30% 0.0 mm CLR
21:29 25.2 °C 5.9 °C 1014.0 hPa ESE 8.7 km/h 13.0 km/h 29% 0.0 mm CLR
21:34 25.2 °C 5.9 °C 1014.2 hPa East 8.7 km/h 14.8 km/h 29% 0.0 mm CLR
21:39 25.1 °C 6.3 °C 1014.2 hPa SE 8.7 km/h 11.1 km/h 30% 0.0 mm CLR
21:44 25.0 °C 5.7 °C 1014.2 hPa SE 8.7 km/h 14.8 km/h 29% 0.0 mm CLR
21:49 24.9 °C 5.6 °C 1014.3 hPa East 9.5 km/h 11.1 km/h 29% 0.0 mm CLR
21:54 24.8 °C 6.1 °C 1014.3 hPa ESE 9.5 km/h 10.0 km/h 30% 0.0 mm CLR
21:59 24.8 °C 6.1 °C 1014.3 hPa East 7.6 km/h 14.8 km/h 30% 0.0 mm CLR
22:04 24.7 °C 5.9 °C 1014.5 hPa East 7.6 km/h 9.3 km/h 30% 0.0 mm CLR
22:09 24.7 °C 6.4 °C 1014.5 hPa ESE 6.9 km/h 9.3 km/h 31% 0.0 mm CLR
22:14 24.6 °C 6.8 °C 1014.5 hPa NE 6.9 km/h 8.4 km/h 32% 0.0 mm CLR
22:19 24.4 °C 7.1 °C 1014.8 hPa NE 5.8 km/h 9.3 km/h 33% 0.0 mm CLR
22:24 24.3 °C 7.4 °C 1014.8 hPa NE 5.8 km/h 9.3 km/h 34% 0.0 mm CLR
22:29 24.2 °C 8.2 °C 1014.8 hPa NE 6.9 km/h 11.1 km/h 36% 0.0 mm CLR
22:34 24.0 °C 8.4 °C 1015.0 hPa NNE 6.9 km/h 9.3 km/h 37% 0.0 mm CLR
22:39 23.8 °C 8.6 °C 1015.0 hPa NNE 8.4 km/h 9.3 km/h 38% 0.0 mm CLR
22:44 23.6 °C 8.8 °C 1015.0 hPa NNE 8.4 km/h 13.0 km/h 39% 0.0 mm CLR
22:49 23.3 °C 8.6 °C 1015.5 hPa NE 8.4 km/h 13.0 km/h 39% 0.0 mm CLR
22:54 23.0 °C 9.4 °C 1015.5 hPa NE 8.4 km/h 20.1 km/h 42% 0.0 mm CLR
22:59 22.7 °C 10.8 °C 1015.5 hPa NNE 11.9 km/h 20.4 km/h 47% 0.0 mm CLR
23:04 22.3 °C 11.9 °C 1015.8 hPa NNE 11.9 km/h 20.4 km/h 52% 0.0 mm CLR
23:09 22.1 °C 13.4 °C 1015.8 hPa NNE 12.2 km/h 25.9 km/h 58% 0.0 mm CLR
23:14 21.8 °C 13.9 °C 1015.8 hPa NE 12.2 km/h 20.4 km/h 61% 0.0 mm CLR
23:19 21.6 °C 14.7 °C 1016.1 hPa NE 14.0 km/h 24.1 km/h 65% 0.0 mm CLR
23:24 21.4 °C 15.0 °C 1016.1 hPa NE 14.0 km/h 20.4 km/h 67% 0.0 mm CLR
23:29 21.3 °C 14.7 °C 1016.1 hPa ENE 14.0 km/h 18.5 km/h 66% 0.0 mm CLR
23:34 21.2 °C 14.1 °C 1016.2 hPa NE 14.0 km/h 20.4 km/h 64% 0.0 mm CLR
23:39 21.2 °C 14.1 °C 1016.2 hPa NNE 12.2 km/h 18.5 km/h 64% 0.0 mm CLR
23:44 21.2 °C 14.1 °C 1016.2 hPa NNE 12.2 km/h 15.6 km/h 64% 0.0 mm CLR
23:49 21.1 °C 14.5 °C 1016.4 hPa NNE 10.3 km/h 14.8 km/h 66% 0.0 mm CLR
23:54 21.0 °C 14.6 °C 1016.4 hPa NE 10.3 km/h 14.0 km/h 67% 0.0 mm CLR
23:59 20.9 °C 14.8 °C 1016.4 hPa NNE 10.3 km/h 13.0 km/h 68% 0.0 mm CLR
Murcia-Puente Tocinos, España
Compliments of Weather Underground - 2.75 mb

La estación de MeteoMurcia.com, publica sus datos en los siguientes proyectos:

Weather Underground PWS IMURCIAP2 Meteoclimatic www.awekas.at

W3Counter
Web Analytics